Domenica 14 Agosto 2022

 
Calliano - Provincia di Trento

189 mslm

45° 55' 59'' N 11° 05' 53'' E

Pagine realizzate e gestite da Andrea Pernecher

 

Tutti gli orari sono riferiti all'ora solare (GMT+1h)

>stazione meteo :: i dati del giorno  

 Dati relativi a DOMENICA 14 AGOSTO 2022 ORE 16.04
 

 TEMPERATURA

30,8 °C

 

 ESCURS. TERMICA 15,4 °C

 

 

 TEMPERATURA MIN

16,1 °C

alle 04:10

 

 TEMPERATURA MAX 31,5 °C

alle 15:10

 

 TEMP.MEDIA INTEG.

21.8 °C

       
 

 PRESSIONE

1.005 mbar

 

 UMIDITA' 22 %

 

 PIOGGIA

0,0 mm

 

 INTENS. PIOGGIA 0,0 mm/h

 

 VENTO MAX

5,9 m/s

N

 

 INDICE DI CALORE

29,0 °C

 
Immagini WebCam
ORE 8.00 ORE 12.00 ORE 16.00

> visualizza webcam 24 ore

 

 Dettaglio rilevazioni di Domenica 14 Agosto 2022 (ogni 15 minuti)
Ora Temperatura °C Umidità R. % Pressione mbar Vento m/s Indice di calore °C Pioggia totale caduta mm Intensità della pioggia mm/h
  TEMPERATURA UMIDITA' PRESSIONE VENTO IND. CALORE PIOGGIA INTENS. PIOGGIA
15:45 30,6 21 1.005 2,6 W 28,8 0,0 0,0
15:30 31,0 20 1.005 2,4 W 29,1 0,0 0,0
15:15 31,5 21 1.005 1,2 W 29,6 0,0 0,0
15:00 31,2 21 1.005 2,8 WSW 29,3 0,0 0,0
14:45 30,6 22 1.006 2,4 W 28,8 0,0 0,0
14:30 30,0 21 1.006 4,5 WSW 28,3 0,0 0,0
14:15 30,2 21 1.006 2,8 WNW 28,4 0,0 0,0
14:00 30,3 22 1.006 3,6 WNW 28,6 0,0 0,0
13:45 30,1 22 1.006 3,0 WNW 28,4 0,0 0,0
13:30 30,1 23 1.006 1,6 S 28,4 0,0 0,0
13:15 30,2 24 1.007 1,4 WSW 28,6 0,0 0,0
13:00 30,0 24 1.007 0,0 WSW 28,4 0,0 0,0
12:45 29,3 26 1.007 2,6 S 27,9 0,0 0,0
12:30 28,7 27 1.007 1,6 NW 27,5 0,0 0,0
12:15 28,4 28 1.008 1,2 SSW 27,3 0,0 0,0
12:00 27,3 30 1.008 1,6 WSW 26,6 0,0 0,0
11:45 26,3 29 1.008 0,0 SE 25,8 0,0 0,0
11:30 26,0 30 1.008 1,8 ESE 25,5 0,0 0,0
11:15 25,3 30 1.008 1,4 SE 24,8 0,0 0,0
11:00 25,0 31 1.009 2,6 ESE 24,6 0,0 0,0
10:45 24,5 31 1.009 1,8 E 24,1 0,0 0,0
10:30 24,0 32 1.009 1,6 ENE 23,6 0,0 0,0
10:15 23,2 33 1.009 1,6 E 22,9 0,0 0,0
10:00 22,7 34 1.009 1,2 E 22,4 0,0 0,0
09:45 22,1 35 1.009 3,4 E 21,8 0,0 0,0
09:30 21,5 36 1.010 2,8 E 21,3 0,0 0,0
09:15 20,9 38 1.010 2,6 ESE 20,8 0,0 0,0
09:00 20,6 40 1.010 2,6 ESE 20,6 0,0 0,0
08:45 20,3 42 1.010 3,6 E 20,4 0,0 0,0
08:30 19,6 44 1.010 1,6 ESE 19,7 0,0 0,0
08:15 19,1 46 1.010 1,8 SE 19,3 0,0 0,0
08:00 18,8 46 1.010 2,4 ESE 19,0 0,0 0,0
07:45 18,6 47 1.010 2,4 ESE 18,9 0,0 0,0
07:30 18,4 48 1.010 1,8 ESE 18,7 0,0 0,0
07:15 17,7 52 1.009 2,6 E 18,3 0,0 0,0
07:00 17,4 54 1.010 2,4 E 18,1 0,0 0,0
06:45 17,1 55 1.010 2,8 ENE 17,8 0,0 0,0
06:30 16,8 58 1.010 2,2 E 17,7 0,0 0,0
06:15 16,5 58 1.010 1,4 ENE 17,4 0,0 0,0
06:00 16,5 57 1.010 1,8 E 17,3 0,0 0,0
05:45 16,7 56 1.010 2,2 ENE 17,5 0,0 0,0
05:30 16,9 55 1.010 2,4 ENE 17,6 0,0 0,0
05:15 16,8 56 1.010 1,4 E 17,6 0,0 0,0
05:00 17,0 55 1.010 2,4 ESE 17,7 0,0 0,0
04:45 17,0 57 1.010 1,6 ESE 17,8 0,0 0,0
04:30 16,6 60 1.010 2,6 ENE 17,6 0,0 0,0
04:15 16,2 59 1.010 1,6 ENE 17,1 0,0 0,0
04:00 16,3 58 1.010 0,0 E 17,2 0,0 0,0
03:45 16,3 57 1.010 1,2 ENE 17,1 0,0 0,0
03:30 16,4 55 1.011 0,0 WSW 17,1 0,0 0,0
03:15 16,6 54 1.011 0,0 WSW 17,3 0,0 0,0
03:00 17,0 52 1.011 0,0 WSW 17,6 0,0 0,0
02:45 17,3 51 1.011 0,0 WSW 17,8 0,0 0,0
02:30 17,7 51 1.011 0,0 NNE 18,2 0,0 0,0
02:15 17,9 49 1.011 0,0 NNE 18,3 0,0 0,0
02:00 18,6 47 1.011 0,0 NNE 18,9 0,0 0,0
01:45 19,0 46 1.011 1,6 NNE 19,2 0,0 0,0
01:30 19,1 46 1.011 1,6 ESE 19,3 0,0 0,0
01:15 19,1 47 1.011 0,0 ENE 19,4 0,0 0,0
01:00 19,1 47 1.011 1,4 ESE 19,4 0,0 0,0
00:45 19,2 47 1.011 1,0 ESE 19,5 0,0 0,0
00:30 19,1 47 1.011 0,0 W 19,4 0,0 0,0
00:15 18,9 47 1.011 0,0 W 19,2 0,0 0,0
00:00 19,1 46 1.011 0,0 WNW 19,3 0,0 0,0

 

 

Stampa paginastampa    torna in cima

 2002-2022 osservatoriocalliano.it